User: anonymous   Login
Location: C�mpuri de-Sus
(45.9500°N, 22.5500°E)
Time: 02:38:45
(UTC+00:00)
Language:

YAOGAN 1 - Orbit

View from above orbital plane
View from above orbital plane
View from above satellite
View from above satellite

Ground track
Ground track

The orbit data is extracted from the following two-line orbital elements,

1 29092U 06015A   22018.58654664  .00000334  00000-0  47368-4 0  9993
2 29092  97.8894  48.5362 0001435  90.4246 269.7132 14.83254824850728
Epoch (UTC): 18 January 2022 14:04:37
Eccentricity: 0.0001435
inclination: 97.8894°
perigee height: 618 km
apogee height: 620 km
right ascension of ascending node: 48.5362°
argument of perigee: 90.4246°
revolutions per day: 14.83254824
mean anomaly at epoch: 269.7132°
orbit number at epoch: 85072

The dashed part of the orbit path shows where the satellite is in the earth's shadow,  

DLR